Regional Weather Roundup
Issued by NWS

Home | Current Version | Previous Version | Text Only | Print | Product List | Glossary Off
Versions: 1 2 3 4 5 6 7 8 9 10 11 12 13 14 15 16 17 18 19 20 21 22 23 24 25 26 27 28 29 30 31 32 33 34 35 36 37 38 39 40 41 42 43 44 45 46 47 48 49 50

000
ASUS45 KBOI 250010
RWRID

IDAHO REGIONAL WEATHER ROUNDUP
NATIONAL WEATHER SERVICE BOISE ID
600 PM MDT MON JUL 24 2017

NOTE: "FAIR" INDICATES FEW OR NO CLOUDS BELOW 12000 FEET
WITH NO SIGNIFICANT WEATHER AND/OR OBSTRUCTIONS TO VISIBILITY

IDZ012-014-250100-
SOUTHWEST IDAHO


CITY           SKY/WX    TMP DP  RH WIND       PRES   REMARKS
BOISE          PTSUNNY   98  44  15 W12       29.81F HX  94
CALDWELL       PTSUNNY   93  55  27 W12       29.81F HX  91
MOUNTAIN HOME  PTSUNNY   97  44  16 SW10      29.83F HX  93
$$

IDZ016-017-250100-
SOUTHCENTRAL IDAHO


CITY           SKY/WX    TMP DP  RH WIND       PRES   REMARKS
BURLEY         CLOUDY    90  45  21 SE7       29.91F
JEROME         MOSUNNY   92  44  19 SE13      29.91F
TWIN FALLS     MOSUNNY   89  47  23 E14       29.92F
$$

IDZ019>023-250100-
SOUTHEAST IDAHO


CITY           SKY/WX    TMP DP  RH WIND       PRES   REMARKS
IDAHO FALLS    PTSUNNY   91  46  21 N12       29.98S
POCATELLO      PTSUNNY   93  33  12 SW12      29.96F
REXBURG        CLOUDY    86  45  23 NE14G21   30.00F
$$

IDZ006-010-011-018-031-032-250100-
CENTRAL IDAHO MOUNTAINS


CITY           SKY/WX    TMP DP  RH WIND       PRES   REMARKS
MCCALL         CLOUDY    86  37  17 W13G20    30.00S
HAILEY         MOSUNNY   84  52  32 CALM      30.03F
STANLEY          N/A     80  35  19 CALM      30.13F
SALMON         NOT AVBL
CHALLIS        PTSUNNY   86  47  25 N7        29.99S
$$

IDZ002-004-006-007-026-250100-
NORTHERN IDAHO


CITY           SKY/WX    TMP DP  RH WIND       PRES   REMARKS
LEWISTON       SUNNY     92  29  10 W12       29.86F
LOWELL           N/A     89  50  26 CALM      29.82S
COEUR D`ALENE  SUNNY     86  32  14 W8        29.92F
MULLAN PASS    SUNNY     73  32  22 NW3       30.11S
$$



USA.gov is the U.S. government's official web portal to all federal, state and local government web resources and services.